User: anonymous   Login
Location: Unspecified
(0.0000°N, 0.0000°E)
Time: 02:03:19
(UTC+00:00)
Language:

SES 6 - Orbit

View from above orbital plane
View from above orbital plane
View from above satellite
View from above satellite

Ground track
Ground track

The orbit data is extracted from the following two-line orbital elements,

1 39172U 13026A   16037.40773244 -.00000266  00000-0  00000+0 0  9996
2 39172   0.0190  24.6809 0001662 293.7364 283.8363  1.00271242  9788
Epoch (UTC): 06 February 2016 09:47:08
Eccentricity: 0.0001662
inclination: 0.0190°
perigee height: 35779 km
apogee height: 35793 km
right ascension of ascending node: 24.6809°
argument of perigee: 293.7364°
revolutions per day: 1.00271242
mean anomaly at epoch: 283.8363°
orbit number at epoch: 978

The dashed part of the orbit path shows where the satellite is in the earth's shadow,  

DLR